Regional Weather Roundup
Issued by NWS

Home | Current Version | Previous Version | Text Only | Print | Product List | Glossary Off
Versions: 1 2 3 4 5 6 7 8 9 10 11 12 13 14 15 16 17 18 19 20 21 22 23 24 25 26 27 28 29 30 31 32 33 34 35 36 37 38 39 40 41 42 43 44 45 46 47 48 49 50

725
ASUS43 KOAX 240802
RWRNE

WEATHER ROUNDUP FOR NEBRASKA
NATIONAL WEATHER SERVICE OMAHA NE
200 AM CST FRI NOV 24 2017

NOTES: SATELLITE DATA IS BEING USED TO AUGMENT CLOUD COVER ABOVE
       12000 FEET.
       "FAIR" INDICATES FEW OR NO CLOUDS BELOW 12,000 FEET WITH NO
       SIGNIFICANT WEATHER AND/OR OBSTRUCTIONS TO VISIBILITY.


NEZ001>004-019>022-054>056-240900-
NEBRASKA PANHANDLE

CITY           SKY/WX    TMP DP  RH WIND       PRES   REMARKS
SCOTTSBLUFF    CLOUDY    64  34  32 W20G25    29.74F
ALLIANCE       CLOUDY    50  37  61 W13       29.72F
CHADRON        CLEAR     54  38  54 SW12G21   29.65F
GORDON         FAIR      42  35  74 SW7       29.67S
KIMBALL        CLOUDY    60  31  33 W24G32    29.82F
SIDNEY         CLOUDY    44  30  57 SW8       29.79F
$$

NEZ057>060-069>072-079>082-240900-
SOUTHWEST NEBRASKA

CITY           SKY/WX    TMP DP  RH WIND       PRES   REMARKS
NORTH PLATTE   PTCLDY    39  34  82 NW5       29.71F
IMPERIAL       CLEAR     46  31  55 W12       29.76F
LEXINGTON      PTCLDY    45  36  70 CALM      29.69F
MCCOOK         CLEAR     47  37  68 W9        29.75F
OGALLALA       PTCLDY    41  32  70 W5        29.75S
$$

NEZ005>010-023>029-035>040-094-240900-
NORTH CENTRAL NEBRASKA

CITY           SKY/WX    TMP DP  RH WIND       PRES   REMARKS
VALENTINE      CLEAR     52  37  56 W15       29.60F
AINSWORTH      CLEAR     49  39  67 W14       29.59F
BROKEN BOW     PTCLDY    46  37  71 W10       29.65F
O`NEILL        CLEAR     49  41  74 SW7       29.57F
ORD            CLOUDY    51  39  63 CALM      29.61F
THEDFORD       CLEAR     54  39  56 W14       29.66F
$$

NEZ041-046>049-061>064-073>077-083>087-240900-
SOUTH CENTRAL NEBRASKA

CITY           SKY/WX    TMP DP  RH WIND       PRES   REMARKS
GRAND ISLAND   PTCLDY    53  41  63 SW16      29.65F
AURORA         PTCLDY    51  40  64 SW15      29.64F
HASTINGS       PTCLDY    52  39  61 SW8       29.68F
HEBRON         CLEAR     54  40  60 SW10G17   29.71F
HOLDREGE       PTCLDY    51  39  64 SW9       29.70F
KEARNEY        PTCLDY    54  38  54 SW13      29.68F
YORK           MOCLDY    50  41  71 SW10      29.65F
$$

NEZ011>018-030>034-042>045-240900-
NORTHEAST NEBRASKA

CITY           SKY/WX    TMP DP  RH WIND       PRES   REMARKS
NORFOLK        CLOUDY    49  40  71 SW5       29.58F
ALBION         CLOUDY    47  40  75 SE5       29.60F
BLAIR          CLOUDY    53  40  62 S13       29.64F
COLUMBUS       CLOUDY    49  40  71 S6        29.62F
FREMONT        CLOUDY    53  39  59 S7        29.63F
TEKAMAH        CLOUDY    44  35  70 SE7       29.63F
WAYNE          CLEAR     49  39  69 S10       29.58F
$$

NEZ050>053-065>068-078-088>093-240900-
SOUTHEAST NEBRASKA

CITY           SKY/WX    TMP DP  RH WIND       PRES   REMARKS
LINCOLN        PTCLDY    50  39  66 S12       29.67F
OMAHA EPPLEY   CLOUDY    45  37  73 SE12      29.67F
BEATRICE       PTCLDY    53  40  61 S8        29.71F
FALLS CITY     CLEAR     53  37  54 S14       29.74F
NEBRASKA CITY  PTCLDY    54  40  59 SW13      29.70F
PLATTSMOUTH    PTCLDY    53  40  62 S16       29.67F
$$

NEZ044-045-051>053-067-240900-
OMAHA AREA

CITY           SKY/WX    TMP DP  RH WIND       PRES   REMARKS
OMAHA EPPLEY   CLOUDY    45  37  73 SE12      29.67F
BLAIR          CLOUDY    53  40  62 S13       29.64F
FREMONT        CLOUDY    53  39  59 S7        29.63F
MILLARD        CLOUDY    54  41  60 S5        29.66F
OFFUTT AFB     CLOUDY    42  37  81 E9        29.66F
PLATTSMOUTH    PTCLDY    53  40  62 S16       29.67F
WAHOO          FAIR      50  39  66 S9        29.64F
$$




USA.gov is the U.S. government's official web portal to all federal, state and local government web resources and services.